Weather History for KPSP - July, 2013

Change the Weather History Date:

Friday, July 19, 2013

  Actual Average Record
Temperature  
Mean Temperature 92 °F 93 °F  
Max Temperature 101 °F 108 °F 119 °F (1978)
Min Temperature 82 °F 78 °F 59 °F (1932)
Degree Days  
Heating Degree Days 0 0  
Month to date heating degree days 0 0  
Since 1 June heating degree days 0 0  
Since 1 July heating degree days 0 0  
Cooling Degree Days 27 28  
Month to date cooling degree days 568 512  
Year to date cooling degree days 2356 1918  
Since 1 June cooling degree days 1314 1159  
Growing Degree Days 41 (Base 50)    
Moisture  
Dew Point 62 °F    
Average Humidity 42    
Maximum Humidity 59    
Minimum Humidity 24    
Precipitation  
Precipitation 0.00 in 0.01 in 1.05 in (1955)
Month to date precipitation T 0.06  
Year to date precipitation 0.97 3.00  
Since 1 July precipitation T  
Snow  
Snow 0.00 in - - ()
Month to date snowfall 0.0  
Year to date snowfall 0.0  
Snow Depth 0.00 in    
Sea Level Pressure  
Sea Level Pressure 29.76 in    
Wind  
Wind Speed 4 mph (East)    
Max Wind Speed 14 mph    
Max Gust Speed 18 mph    
Visibility 10 miles    
Events      
T = Trace of Precipitation, MM = Missing Value Source: NWS Daily Summary

Daily Weather History Graph

Daily Weather History Graph

Search for Another Location

Airport or City:

Trip Planner

Search our weather history database for the weather conditions in past years. The results will help you decide how hot, cold, wet, or windy it might be!

Date:

Astronomy

Jul. 19, 2013 Rise Set
Actual Time 5:49 AM PDT 7:55 PM PDT
Civil Twilight 5:20 AM PDT 8:23 PM PDT
Nautical Twilight 4:46 AM PDT 8:57 PM PDT
Astronomical Twilight 4:09 AM PDT 9:34 PM PDT
Moon 5:02 PM PDT (7/19) 2:33 AM PDT (7/19)
Length of Visible Light 15h 02m
Length of Day
14h 06m
Waxing Gibbous, 87% of the Moon is Illuminated
Jul 19
Waxing Gibbous
Jul 22
Full
Jul 29
Last Quarter
Aug 6
New
Aug 14
First Quarter

Hourly Weather History & Observations

Time (PDT) Temp. Heat Index Dew Point Humidity Pressure Visibility Wind Dir Wind Speed Gust Speed Precip Events Conditions
12:53 AM 88.0 °F - 46.9 °F 24% 29.73 in 10.0 mi Calm Calm - N/A   Smoke
1:53 AM 84.9 °F - 50.0 °F 30% 29.72 in 10.0 mi SSW 3.5 mph - N/A   Smoke
2:53 AM 82.9 °F - 51.1 °F 33% 29.72 in 10.0 mi Calm Calm - N/A   Smoke
3:53 AM 84.0 °F - 48.9 °F 29% 29.73 in 10.0 mi Calm Calm - N/A   Smoke
4:53 AM 84.0 °F - 50.0 °F 31% 29.76 in 10.0 mi Calm Calm - N/A   Smoke
5:53 AM 84.9 °F - 52.0 °F 32% 29.81 in 10.0 mi Calm Calm - N/A   Smoke
6:53 AM 86.0 °F 86.1 °F 60.8 °F 43% 29.83 in 10.0 mi NNE 3.5 mph - N/A   Smoke
7:53 AM 87.1 °F 92.8 °F 71.1 °F 59% 29.85 in 10.0 mi Calm Calm - N/A   Smoke
8:53 AM 89.6 °F 98.2 °F 73.4 °F 59% 29.84 in 10.0 mi Calm Calm - N/A   Smoke
9:53 AM 91.0 °F 97.6 °F 71.1 °F 52% 29.84 in 10.0 mi East 3.5 mph - N/A   Smoke
10:53 AM 91.9 °F 98.4 °F 71.1 °F 50% 29.83 in 10.0 mi East 4.6 mph - N/A   Smoke
11:53 AM 95.0 °F 102.5 °F 71.1 °F 46% 29.82 in 10.0 mi East 8.1 mph 16.1 mph N/A   Smoke
12:53 PM 95.0 °F 101.3 °F 70.0 °F 44% 29.81 in 10.0 mi ENE 11.5 mph - N/A   Smoke
1:53 PM 96.1 °F 101.0 °F 68.0 °F 40% 29.79 in 10.0 mi East 9.2 mph - N/A   Smoke
2:53 PM 98.1 °F 100.7 °F 64.0 °F 33% 29.76 in 10.0 mi ESE 6.9 mph - N/A   Smoke
3:53 PM 100.0 °F 104.9 °F 66.9 °F 34% 29.73 in 10.0 mi Variable 4.6 mph - N/A   Smoke
4:53 PM 100.9 °F 105.3 °F 66.0 °F 32% 29.69 in 10.0 mi SE 6.9 mph - N/A   Smoke
5:53 PM 100.0 °F 103.6 °F 64.9 °F 32% 29.67 in 10.0 mi SSE 4.6 mph - N/A   Smoke
6:53 PM 100.0 °F 101.8 °F 62.1 °F 29% 29.68 in 10.0 mi SE 5.8 mph - N/A   Smoke
7:53 PM 98.1 °F 101.2 °F 64.9 °F 34% 29.69 in 10.0 mi East 6.9 mph - N/A   Smoke
8:53 PM 95.0 °F 97.9 °F 66.0 °F 38% 29.72 in 10.0 mi East 9.2 mph - N/A   Smoke
9:53 PM 93.9 °F 96.1 °F 64.9 °F 38% 29.74 in 10.0 mi ENE 5.8 mph - N/A   Smoke
10:53 PM 91.0 °F 89.2 °F 55.9 °F 30% 29.75 in 10.0 mi NW 10.4 mph - N/A   Smoke
11:53 PM 89.1 °F 87.1 °F 55.0 °F 31% 29.78 in 10.0 mi North 8.1 mph - N/A   Smoke